Stations météo

réclame
Mon MeteoGroup
Roth, Allemagne (10765): Température de l'air & dewpoint: 15.06.2018 12:00:00 - 21.06.2018 12:00:00 (CEST)Roth, Allemagne (10765): Température de l'air 5cm & Température de l'air -5cm: 15.06.2018 12:00:00 - 21.06.2018 12:00:00 (CEST)Roth, Allemagne (10765): Température de l'air -20cm & Température de l'air -100cm: 15.06.2018 12:00:00 - 21.06.2018 12:00:00 (CEST)Roth, Allemagne (10765): Vitesse du vent & gusts: 15.06.2018 12:00:00 - 21.06.2018 12:00:00 (CEST)Roth, Allemagne (10765): Direction du vent: 15.06.2018 12:00:00 - 21.06.2018 12:00:00 (CEST)Roth, Allemagne (10765): reduced air pressure: 15.06.2018 12:00:00 - 21.06.2018 12:00:00 (CEST)Roth, Allemagne (10765): visibility: 15.06.2018 12:00:00 - 21.06.2018 12:00:00 (CEST)Roth, Allemagne (10765): Quantités de précipitations: 15.06.2018 12:00:00 - 21.06.2018 12:00:00 (CEST)
Date & Time tt [°C] td [°C] tt 5cm [°C] tt -5cm [°C] tt -20cm [°C] tt -100cm [°C] ff [km/h] ff [knt] fx [km/h] fx [knt] dd ppp [hPa] vv [km] rr [mm]
21.06.2018 12:00:00 26,9 14,9 31,5 30,5 23,8 19,4 29 16 43 23 WNW 1012,6 26 0,0
21.06.2018 11:00:00 26,9 15,7 32,0 29,0 23,1 19,3 21 11 35 19 W 1012,7 40 0,0
21.06.2018 10:00:00 25,2 15,4 29,5 26,0 22,6 19,3 13 7 20 11 W 1013,0 46 0,0
21.06.2018 09:00:00 23,0 15,5 26,6 23,2 22,5 19,3 10 5 16 9 WSW 1013,9 29 0,0
21.06.2018 08:00:00 20,8 14,8 21,7 21,8 22,5 19,3 10 5 14 8 SW 1014,5 26 0,0
21.06.2018 07:00:00 17,5 14,3 18,0 20,5 22,8 19,3 5 3 9 5 S 1015,3 18 0,0
21.06.2018 06:00:00 15,5 13,5 15,3 20,3 23,2 19,2 0 0 5 3 N 1015,8 16 0,0
21.06.2018 05:00:00 15,3 13,7 13,9 20,8 23,7 19,2 0 0 4 2 N 1016,1 16 0,0
21.06.2018 04:00:00 15,7 13,9 14,0 21,4 24,2 19,2 3 2 5 3 S 1016,7 16 0,0
21.06.2018 03:00:00 16,2 14,2 14,4 22,0 24,7 19,2 3 2 6 3 S 1017,0 17 0,0
21.06.2018 02:00:00 16,5 14,1 15,1 22,8 25,2 19,2 4 2 5 3 SSE 1017,4 18 0,0
21.06.2018 01:00:00 17,5 14,7 15,8 23,7 25,8 19,2 4 2 6 4 ESE 1017,7 19 0,0
21.06.2018 00:00:00 18,8 15,0 16,6 24,8 26,3 19,2 3 2 7 4 SE 1017,8 24 0,0
20.06.2018 23:00:00 20,0 15,3 17,9 26,0 26,8 19,2 6 3 10 5 SSW 1017,6 27 0,0
20.06.2018 22:00:00 22,2 15,8 20,1 27,4 27,3 19,2 3 1 7 4 S 1017,2 24 0,0
20.06.2018 21:00:00 25,5 15,7 23,4 29,1 27,6 19,2 6 3 11 6 SW 1016,6 38 0,0
20.06.2018 20:00:00 27,2 13,9 26,4 30,7 27,6 19,2 4 2 12 6 WSW 1016,5 48 0,0
20.06.2018 19:00:00 27,8 12,9 29,2 32,3 27,4 19,2 7 4 14 7 SSE 1016,8 47 0,0
20.06.2018 18:00:00 27,8 13,0 30,1 32,9 26,9 19,2 7 4 18 10 S 1017,1 41 0,0
20.06.2018 17:00:00 27,5 13,4 31,3 33,3 26,3 19,2 5 3 13 7 N 1017,8 31 0,0
20.06.2018 16:00:00 26,8 13,8 28,9 32,6 25,6 19,2 5 3 18 10 ENE 1018,5 43 0,0
20.06.2018 15:00:00 27,1 12,8 33,0 32,1 24,9 19,2 6 3 19 10 W 1018,9 42 0,0
20.06.2018 14:00:00 26,0 14,0 30,2 30,2 24,3 19,2 5 3 12 7 NE 1019,5 41 0,0
20.06.2018 13:00:00 25,7 12,4 28,7 29,8 23,6 19,1 4 2 11 6 NNW 1020,2 47 0,0
20.06.2018 12:00:00 25,1 13,4 29,0 29,6 22,8 19,1 5 3 17 9 SE 1020,7 46 0,0
20.06.2018 11:00:00 25,1 14,0 31,3 27,9 22,0 19,1 5 3 17 9 WSW 1020,9 41 0,0
20.06.2018 10:00:00 23,9 14,9 28,2 26,0 21,3 19,1 9 5 14 8 ENE 1021,3 29 0,0
20.06.2018 09:00:00 21,3 14,1 25,2 23,5 20,9 19,1 5 3 10 6 ESE 1022,0 26 0,0
20.06.2018 08:00:00 19,9 15,3 24,4 20,5 20,8 19,1 3 1 7 4 S 1022,4 18 0,0
20.06.2018 07:00:00 16,0 14,1 16,8 19,0 21,0 19,1 3 2 5 3 SW 1023,1 13 0,0
20.06.2018 06:00:00 14,0 12,7 13,6 18,6 21,4 19,1 0 0 0 0 N 1023,7 16 0,0
20.06.2018 05:00:00 13,8 12,9 13,2 18,9 21,7 19,1 0 0 3 1 N 1023,8 14 0,0
20.06.2018 04:00:00 13,4 12,2 12,5 19,4 22,2 19,1 0 0 4 2 N 1023,9 16 0,0
20.06.2018 03:00:00 14,6 13,0 13,2 20,0 22,6 19,1 0 0 4 2 N 1023,8 24 0,0
20.06.2018 02:00:00 15,0 13,2 13,5 20,7 23,0 19,1 0 0 4 2 N 1024,1 23 0,0
20.06.2018 01:00:00 16,1 13,2 14,2 21,5 23,5 19,1 3 2 5 3 SSW 1023,9 27 0,0
20.06.2018 00:00:00 17,4 13,8 15,4 22,5 23,9 19,1 0 0 13 7 N 1023,6 33 0,0
19.06.2018 23:00:00 19,0 14,2 17,4 23,6 24,2 19,1 5 3 7 4 NNE 1023,3 39 0,0
19.06.2018 22:00:00 21,7 13,9 20,9 24,6 24,5 19,1 5 3 8 5 NNW 1022,8 43 0,0
19.06.2018 21:00:00 22,2 13,9 21,9 25,6 24,7 19,1 6 3 13 7 NNW 1022,4 46 0,0
19.06.2018 20:00:00 22,9 13,6 23,0 26,8 24,7 19,1 9 5 21 11 NNW 1022,3 47 0,0
19.06.2018 19:00:00 24,1 12,8 26,2 28,0 24,4 19,1 8 4 21 11 N 1022,0 54 0,0
19.06.2018 18:00:00 24,8 13,9 27,7 28,9 24,0 19,1 14 7 23 12 NW 1021,9 38 0,0
19.06.2018 17:00:00 23,5 13,3 25,6 28,4 23,6 19,1 10 5 21 11 NW 1022,5 43 0,0
19.06.2018 16:00:00 23,0 12,8 26,7 28,5 22,9 19,1 11 6 24 13 NNW 1022,9 48 0,0
19.06.2018 15:00:00 22,6 12,7 26,1 27,7 22,3 19,1 10 5 22 12 W 1023,2 40 0,0
19.06.2018 14:00:00 22,5 12,6 26,8 26,7 21,7 19,1 14 8 27 14 W 1023,3 44 0,0
19.06.2018 13:00:00 22,3 14,0 27,5 24,0 21,3 19,1 13 7 20 11 WSW 1023,5 38 0,0
19.06.2018 12:00:00 20,7 13,4 22,6 23,1 21,0 19,0 14 8 23 12 WSW 1023,8 44 0,0
19.06.2018 11:00:00 19,7 13,3 20,6 22,8 20,6 19,0 10 5 17 9 WSW 1023,9 35 0,0
19.06.2018 10:00:00 19,2 13,3 20,9 22,8 20,2 19,0 8 5 20 11 WNW 1024,1 30 0,0
19.06.2018 09:00:00 18,6 13,5 20,5 20,1 20,1 19,0 14 7 19 11 WSW 1024,1 31 0,0
19.06.2018 08:00:00 16,1 12,1 16,8 18,5 20,2 19,0 9 5 13 7 WSW 1024,2 28 0,0
19.06.2018 07:00:00 14,4 11,0 14,7 17,8 20,5 19,0 7 4 12 6 SSW 1024,1 25 0,0
19.06.2018 06:00:00 13,2 10,5 12,9 17,4 20,9 19,0 9 5 13 7 SSW 1024,2 22 0,0
19.06.2018 05:00:00 13,0 10,6 11,6 17,8 21,3 19,0 5 3 9 5 SW 1024,0 23 0,0
19.06.2018 04:00:00 12,8 10,4 11,1 18,4 21,7 19,0 4 2 8 4 SW 1024,0 24 0,0
19.06.2018 03:00:00 13,3 10,7 11,8 19,0 22,2 19,0 5 3 10 5 SW 1023,8 27 0,0
19.06.2018 02:00:00 14,0 10,9 12,4 19,7 22,7 19,0 6 3 8 4 SSW 1023,4 29 0,0
19.06.2018 01:00:00 15,1 11,1 13,5 20,5 23,2 19,0 5 3 8 4 SSW 1023,4 30 0,0
19.06.2018 00:00:00 15,6 11,2 14,4 21,4 23,8 19,0 5 3 7 4 SW 1023,5 34 0,0
18.06.2018 23:00:00 15,7 11,3 13,8 22,4 24,3 19,0 5 3 7 4 SW 1022,9 38 0,0
18.06.2018 22:00:00 17,8 10,9 15,1 23,7 24,7 19,0 6 3 9 5 WNW 1022,2 42 0,0
18.06.2018 21:00:00 20,1 10,6 18,9 25,3 25,1 19,0 6 4 16 9 WNW 1021,3 46 0,0
18.06.2018 20:00:00 21,5 10,4 21,7 27,1 25,2 19,0 9 5 24 13 WNW 1020,9 43 0,0
18.06.2018 19:00:00 22,0 10,7 23,0 28,2 25,1 19,0 14 8 24 13 NW 1020,7 49 0,0
18.06.2018 18:00:00 22,9 10,2 25,1 29,3 24,8 19,0 15 8 27 15 WNW 1020,6 46 0,0
18.06.2018 17:00:00 22,0 8,8 23,7 30,1 24,2 19,0 12 7 23 13 NW 1020,7 40 0,0
18.06.2018 16:00:00 22,6 7,5 26,5 29,9 23,5 19,0 10 5 29 16 SW 1021,0 32 0,0
18.06.2018 15:00:00 21,1 9,2 24,7 29,6 22,8 19,0 11 6 26 14 WNW 1021,2 45 0,0
18.06.2018 14:00:00 20,5 10,5 25,2 27,9 22,0 19,0 13 7 22 12 W 1021,7 38 0,0
18.06.2018 13:00:00 20,0 9,6 24,4 26,4 21,3 19,0 9 5 22 12 WNW 1022,0 39 0,0
18.06.2018 12:00:00 19,0 9,9 23,7 24,5 20,7 18,9 11 6 21 12 W 1022,3 37 0,0
18.06.2018 11:00:00 17,8 9,4 22,5 22,9 20,3 18,9 14 7 22 12 WSW 1022,4 39 0,0
18.06.2018 10:00:00 16,9 9,7 20,1 20,6 20,1 18,9 6 4 16 8 NW 1022,5 39 0,0
18.06.2018 09:00:00 15,7 10,2 17,2 19,0 20,2 18,9 10 5 18 10 WNW 1022,3 39 0,0
18.06.2018 08:00:00 15,4 10,6 16,4 18,7 20,3 18,9 8 5 16 9 WNW 1021,9 37 0,0
18.06.2018 07:00:00 14,9 11,1 15,0 18,4 20,5 18,9 11 6 14 8 WNW 1021,8 33 0,0
18.06.2018 06:00:00 15,0 11,6 14,5 18,5 20,8 18,9 8 4 10 5 W 1021,7 29 0,0
18.06.2018 05:00:00 15,5 11,4 15,0 18,8 21,1 18,9 7 4 14 8 W 1021,1 27 0,0
18.06.2018 04:00:00 15,9 11,9 15,4 19,2 21,4 18,9 9 5 14 8 W 1020,7 26 0,0
18.06.2018 03:00:00 16,1 12,1 15,5 19,6 21,7 18,9 9 5 11 6 WSW 1020,8 29 0,0
18.06.2018 02:00:00 16,2 11,7 15,3 20,0 22,1 18,9 4 2 10 5 WNW 1020,4 31 0,0
18.06.2018 01:00:00 16,4 12,3 15,7 20,5 22,5 18,9 8 4 9 5 WSW 1020,2 27 0,0
18.06.2018 00:00:00 17,4 12,2 16,1 21,2 22,9 18,9 7 4 10 5 SW 1019,8 29 0,0
17.06.2018 23:00:00 18,0 11,7 16,9 21,9 23,2 18,9 6 4 10 6 W 1019,2 38 0,0
17.06.2018 22:00:00 18,8 12,0 18,3 22,7 23,6 18,9 9 5 11 6 WSW 1018,9 35 0,0
17.06.2018 21:00:00 19,5 11,6 18,6 23,8 23,9 18,9 5 3 12 6 WNW 1017,8 44 0,0
17.06.2018 20:00:00 19,8 11,5 19,5 25,1 24,0 18,9 10 6 26 14 NW 1017,7 45 0,0
17.06.2018 19:00:00 22,0 11,2 23,3 26,3 24,0 18,9 19 10 28 15 WNW 1016,7 39 0,0
17.06.2018 18:00:00 21,5 11,7 22,3 27,1 23,8 18,9 13 7 27 14 NW 1016,7 39 0,0
17.06.2018 17:00:00 22,0 11,5 24,0 27,9 23,4 18,9 17 9 38 21 NW 1016,6 36 0,0
17.06.2018 16:00:00 21,9 12,2 24,7 28,0 22,8 18,9 16 8 27 15 WNW 1016,5 37 0,0
17.06.2018 15:00:00 20,5 11,7 24,5 26,5 22,5 18,9 12 7 24 13 NW 1017,3 31 0,0
17.06.2018 14:00:00 18,6 12,6 20,0 25,3 22,1 18,9 16 9 32 17 WNW 1017,8 33 0,0
17.06.2018 13:00:00 20,9 13,8 24,6 25,9 21,7 18,9 16 9 25 14 NW 1017,1 26 0,0
17.06.2018 12:00:00 20,6 13,8 23,3 25,3 21,2 18,8 16 8 24 13 NW 1017,2 26 0,0
17.06.2018 11:00:00 20,6 14,4 24,5 23,3 20,8 18,8 12 6 21 11 WNW 1017,0 27 0,0
17.06.2018 10:00:00 20,2 13,7 22,8 23,1 20,5 18,8 13 7 21 12 NW 1016,9 25 0,0
17.06.2018 09:00:00 19,8 13,3 23,9 21,5 20,2 18,8 12 6 21 11 NW 1016,5 23 0,0
17.06.2018 08:00:00 18,7 13,2 21,7 19,6 20,2 18,8 7 4 13 7 W 1016,3 18 0,0
17.06.2018 07:00:00 17,1 13,1 17,2 18,7 20,4 18,8 5 3 9 5 SW 1015,8 15 0,0
17.06.2018 06:00:00 14,2 12,0 14,2 18,4 20,7 18,8 2 1 5 3 W 1016,2 10 0,0
17.06.2018 05:00:00 14,5 12,5 14,2 18,7 21,0 18,8 2 1 5 3 S 1015,9 12 0,0
17.06.2018 04:00:00 14,7 12,5 14,6 18,9 21,3 18,8 0 0 3 1 N 1015,8 12 0,0
17.06.2018 03:00:00 13,6 11,6 12,6 19,1 21,8 18,8 3 1 8 4 W 1016,0 10 0,0
17.06.2018 02:00:00 15,1 12,3 13,3 20,0 22,2 18,8 3 1 6 3 ESE 1015,7 15 0,0
17.06.2018 01:00:00 17,3 12,7 16,0 21,0 22,5 18,8 4 2 8 5 WSW 1015,5 19 0,0
17.06.2018 00:00:00 18,2 12,5 17,5 21,6 22,9 18,8 7 4 11 6 SE 1015,3 21 0,0
16.06.2018 23:00:00 18,7 12,5 18,0 22,2 23,3 18,8 3 2 7 4 S 1015,1 24 0,0
16.06.2018 22:00:00 18,4 11,5 16,7 22,9 23,7 18,8 3 2 7 4 SW 1015,0 25 0,0
16.06.2018 21:00:00 20,7 12,8 19,2 24,3 23,9 18,8 4 2 10 5 WNW 1014,1 28 0,0
16.06.2018 20:00:00 22,6 10,6 22,1 25,5 24,1 18,8 7 4 12 6 NNW 1013,6 33 0,0
16.06.2018 19:00:00 23,2 12,1 23,2 26,7 24,0 18,8 3 2 10 5 SSW 1013,4 31 0,0
16.06.2018 18:00:00 24,1 7,3 24,7 28,5 23,7 18,8 8 5 15 8 SSE 1013,2 39 0,0
16.06.2018 17:00:00 25,4 8,7 28,8 27,8 23,2 18,8 5 3 14 8 WSW 1013,2 39 0,0
16.06.2018 16:00:00 23,8 7,3 25,6 28,8 22,7 18,8 9 5 21 11 ENE 1013,8 37 0,0
16.06.2018 15:00:00 23,9 8,1 26,0 26,7 22,2 18,8 6 3 15 8 WSW 1014,1 39 0,0
16.06.2018 14:00:00 23,2 7,1 25,9 26,6 21,7 18,8 8 4 22 12 SSE 1014,6 38 0,0
16.06.2018 13:00:00 22,3 7,7 23,5 26,5 21,0 18,8 5 3 24 13 E 1015,2 35 0,0
16.06.2018 12:00:00 23,2 8,2 28,7 25,0 20,2 18,8 7 4 21 11 NE 1015,3 35 0,0
16.06.2018 11:00:00 22,1 9,5 27,2 24,7 19,5 18,9 11 6 19 10 S 1015,6 28 0,0
16.06.2018 10:00:00 20,3 10,5 23,8 21,8 18,9 18,9 10 5 15 8 SE 1015,8 18 0,0
16.06.2018 09:00:00 18,2 11,6 21,1 19,3 18,7 18,8 4 2 8 4 ENE 1016,4 20 0,0
16.06.2018 08:00:00 15,3 11,3 17,3 17,4 18,7 18,8 0 0 4 2 N 1016,8 17 0,0
16.06.2018 07:00:00 12,9 10,6 12,3 16,0 19,0 18,8 0 0 0 0 N 1017,0 12 0,0
16.06.2018 06:00:00 10,1 8,7 9,6 15,7 19,4 18,8 0 0 0 0 N 1017,4 11 0,0
16.06.2018 05:00:00 9,9 8,9 8,9 16,1 19,8 18,9 0 0 5 3 N 1017,4 11 0,0
16.06.2018 04:00:00 10,1 8,6 8,9 16,7 20,3 18,9 0 0 0 0 N 1017,6 14 0,0
16.06.2018 03:00:00 10,6 9,1 9,6 17,4 20,8 18,9 0 0 0 0 N 1017,8 12 0,0
16.06.2018 02:00:00 11,7 10,0 10,6 18,1 21,3 18,9 0 0 0 0 N 1017,7 16 0,0
16.06.2018 01:00:00 12,4 10,3 11,2 18,9 21,8 18,9 0 0 4 2 N 1017,7 19 0,0
16.06.2018 00:00:00 13,9 10,5 12,0 19,9 22,3 18,9 3 2 6 4 WSW 1017,4 24 0,0
15.06.2018 23:00:00 15,0 11,0 13,4 21,0 22,8 18,9 0 0 7 4 N 1017,0 26 0,0
15.06.2018 22:00:00 17,1 11,0 14,8 22,4 23,2 18,9 4 2 5 3 SSW 1016,5 35 0,0
15.06.2018 21:00:00 19,2 9,9 17,9 24,1 23,5 19,0 3 1 7 4 ESE 1015,9 39 0,0
15.06.2018 20:00:00 21,7 7,0 21,4 25,6 23,5 19,0 3 2 14 7 ENE 1015,5 40 0,0
15.06.2018 19:00:00 21,6 6,2 22,2 27,3 23,2 19,0 10 5 16 9 E 1015,3 39 0,0
15.06.2018 18:00:00 22,3 6,5 25,8 28,0 22,7 19,0 5 3 16 9 NW 1015,3 34 0,0
15.06.2018 17:00:00 21,5 7,3 25,3 27,6 22,1 19,0 6 4 18 10 ESE 1015,8 41 0,0
15.06.2018 16:00:00 21,5 7,0 26,9 27,4 21,4 19,1 7 4 19 10 SE 1016,0 30 0,0
15.06.2018 15:00:00 20,7 8,5 23,9 25,6 20,8 19,1 6 3 16 9 NE 1016,2 38 0,0
15.06.2018 14:00:00 21,3 8,7 26,5 25,4 20,0 19,1 5 3 16 9 WNW 1016,2 35 0,0
15.06.2018 13:00:00 20,0 7,4 25,1 24,8 19,1 19,1 7 4 18 10 NNW 1016,7 29 0,0
15.06.2018 12:00:00 19,1 7,4 24,7 21,1 18,6 19,1 5 3 13 7 NNE 1017,0 37 0,0

tt = Température de l'air
td = dewpoint
tt 5cm = Température de l'air 5cm
tt -5cm = Température de l'air -5cm
tt -20cm = Température de l'air -20cm
tt -100cm = Température de l'air -100cm
ff = Vitesse du vent
fx = gusts
dd = Direction du vent
ppp = reduced air pressure
vv = visibility
rr = Quantités de précipitations

stations d'obs. à proximité